Regional Weather Roundup
Issued by NWS Goodland, KS

Home | Current Version | Previous Version | Graphics & Text | Print | Product List | Glossary On
Versions: 1 2 3 4 5 6 7 8 9 10 11 12 13 14 15 16 17 18 19 20 21 22 23 24 25 26 27 28 29 30 31 32 33 34 35 36 37 38 39 40 41 42 43 44 45 46 47 48 49 50
979
ASUS43 KGLD 290108
RWRGLD

GOODLAND FORECAST AREA HOURLY WEATHER ROUNDUP
NATIONAL WEATHER SERVICE GOODLAND KS
700 PM MDT THU APR 28 2016

...OFFICIAL OBSERVATIONS...

CITY           SKY/WX    TMP DP  RH WIND       PRES   REMARKS
GOODLAND KS    CLOUDY    48  37  65 NE10      30.01S
HILL CITY KS   MOCLDY    53  41  63 NE10      30.03R
IMPERIAL NEB   CLOUDY    45  37  73 N5        30.05R
MCCOOK NEB     CLOUDY    47  38  71 N8        30.05R
AKRON CO       CLOUDY    39  33  79 E5        30.03S
BURLINGTON CO  CLOUDY    47  35  63 E8        30.00F
LIMON CO       CLOUDY    37  33  85 NE14      29.99S
$$

...UNOFFICIAL OBSERVATIONS...

CITY           SKY/WX    TMP DP  RH WIND       PRES   REMARKS
COLBY KS       CLOUDY    52  43  71 NE6       30.04R
GOVE KS          N/A     54  32  43 MISG        N/A
LENORA KS        N/A     49  32  52 MISG        N/A
NORTON KS      CLOUDY    48  37  66 N6        30.03R
SHARON SPRINGS   N/A     50  38  62 NE12        N/A
TRIBUNE KS     MOCLDY    52  37  58 E8        30.00S
KIT CARSON CO    N/A     47  33  57 MISG        N/A
YUMA CO          N/A     41  36  81 NE6         N/A
$$




USA.gov is the U.S. government's official web portal to all federal, state and local government web resources and services.